Temp
21 21 21 21 21 20 20 20 20 20 20 20 20 20 20 20 20 19 19 19 19 19 19 19 19 19 19 19 19 19 19 18 18 18 18 18 18 18 18 18 17 17 17 17 17 17 17 17 17 17 17 16 16 16 16 16 16 16 16 16 16 16 16 16 15 15 15 15 14 14 14 13 13 13
21 21 21 21 21 21 20 20 20 20 20 20 20 20 20 20 20 20 19 19 19 19 19 19 19 19 19 19 19 19 19 18 18 19 19 19 18 18 18 18 18 17 18 18 17 17 17 17 17 17 17 17 16 16 16 16 16 16 16 16 16 16 16 15 15 15 15 15 14 14 14 13 13 13
21 21 21 21 22 21 20 20 20 20 20 20 20 20 19 20 20 20 19 19 19 20 19 19 19 19 19 19 19 19 18 18 19 19 19 19 18 18 18 18 18 17 17 18 17 17 17 17 17 17 17 17 16 16 16 16 16 16 16 16 16 16 16 15 15 15 15 14 14 14 14 13 13 13
21 21 21 21 22 21 21 20 20 20 20 20 20 20 20 20 20 20 20 20 20 19 19 19 19 19 19 19 19 19 19 19 19 19 19 19 18 18 18 18 18 17 17 17 17 17 17 17 17 17 17 16 16 16 16 16 16 16 16 16 16 15 15 15 15 15 14 14 14 14 13 13 13 13
21 21 21 21 22 22 21 21 20 20 20 20 20 20 20 20 20 20 20 20 20 20 19 19 19 19 19 19 19 19 19 19 19 19 19 19 19 18 18 18 17 17 17 17 17 17 17 17 17 17 16 16 16 16 16 16 16 16 16 16 15 15 15 15 15 14 14 14 14 13 13 13 13 13
21 21 21 21 21 21 21 21 21 21 21 21 21 21 21 21 21 21 21 21 21 20 19 19 19 19 19 19 19 19 19 19 19 19 19 19 19 18 18 18 17 17 17 17 17 17 17 17 16 16 16 16 16 16 16 16 16 16 15 15 15 15 15 15 14 14 14 14 13 13 13 13 13 13
22 21 21 21 21 21 21 22 22 21 21 21 21 22 22 22 22 22 21 21 21 21 20 19 19 19 19 19 19 19 19 19 19 19 19 19 19 18 18 18 18 17 17 17 17 17 17 17 16 16 16 16 16 16 16 16 16 15 15 15 15 15 15 15 14 14 14 14 13 13 13 13 13 13
22 22 22 22 22 21 21 22 22 22 21 21 22 22 22 22 22 22 22 21 21 21 21 20 20 19 19 19 19 18 18 18 19 19 19 19 19 18 18 18 18 17 17 17 17 17 17 16 16 16 16 16 16 16 16 16 16 15 15 15 15 15 15 14 14 14 14 14 14 14 13 13 13 13
23 23 22 22 22 22 22 22 22 23 23 22 22 22 22 23 22 22 22 22 21 21 21 21 20 20 19 19 18 18 18 18 18 19 19 19 19 18 18 18 18 17 17 17 17 17 17 16 16 16 16 16 16 16 16 16 16 15 15 15 15 15 14 14 14 13 14 14 14 14 14 14 14 14
23 23 23 23 22 22 22 22 23 23 23 23 23 22 23 23 23 22 22 22 21 21 21 21 20 20 19 19 19 18 19 18 18 18 19 19 19 18 18 18 18 18 17 17 17 17 16 16 16 16 16 16 16 15 15 15 15 15 15 15 14 14 14 13 13 13 14 14 14 14 14 14 14 14
23 23 23 23 23 23 23 23 23 23 23 23 23 23 23 23 22 22 22 21 21 21 21 21 21 20 20 19 19 19 18 18 18 18 18 18 19 18 18 18 18 18 17 17 17 16 16 16 16 16 16 16 16 15 15 14 14 14 15 15 14 13 13 12 12 12 13 14 14 14 14 14 14 14
23 23 23 23 23 23 23 23 23 22 22 23 23 23 23 22 22 22 21 21 21 21 21 21 21 21 20 19 19 19 18 18 19 19 19 19 19 19 18 18 17 17 17 17 16 16 16 16 16 16 16 16 16 15 14 14 14 15 15 14 13 13 12 12 12 12 13 14 14 14 14 14 14 14
23 23 23 23 23 23 23 23 23 23 22 22 22 23 23 22 22 22 21 21 20 20 20 20 20 20 20 20 20 19 19 19 20 20 19 19 19 18 18 17 17 17 17 17 17 16 16 16 16 16 16 16 16 15 15 15 15 15 15 14 13 12 12 12 12 13 13 14 13 13 13 13 13 13
23 23 23 23 23 23 23 23 23 23 23 23 22 22 22 22 22 22 21 21 20 20 20 20 20 20 20 21 20 20 21 21 20 20 19 19 19 18 17 17 17 17 17 17 17 16 16 16 16 16 16 16 15 15 15 15 15 15 14 13 13 12 12 12 12 13 14 13 13 13 13 13 13 13
23 23 23 23 23 23 23 23 23 23 23 23 22 22 22 22 22 22 22 21 21 21 21 21 21 21 21 21 21 21 21 21 20 20 19 19 18 18 17 17 17 17 17 17 17 17 16 16 16 16 15 15 15 15 15 15 15 15 14 13 13 13 12 12 13 13 13 13 13 13 13 13 13 12
23 23 23 23 23 23 23 22 22 22 22 22 22 22 22 22 21 21 21 21 21 21 21 21 21 21 21 21 21 21 21 21 20 20 19 19 19 18 18 18 18 18 17 16 16 17 16 16 16 15 15 15 15 15 15 15 15 14 13 13 13 13 13 13 13 13 13 13 13 12 12 13 13 12
23 23 23 22 22 22 22 22 22 22 22 22 22 22 21 21 21 21 21 21 21 21 21 21 21 21 21 21 22 22 21 21 21 20 19 19 19 18 18 18 18 18 17 16 16 17 16 16 16 16 16 15 15 15 15 15 14 13 13 13 13 13 13 13 13 13 13 13 13 12 12 12 12 12
22 22 22 22 22 22 22 22 22 21 21 21 21 21 21 20 21 21 20 20 20 20 20 20 20 21 21 21 22 22 21 21 21 20 20 20 20 19 19 19 18 18 17 16 16 16 16 16 16 16 16 16 16 15 15 15 14 13 13 13 13 13 13 13 13 13 13 12 12 12 11 11 12 12
22 22 22 22 22 22 22 22 22 21 21 21 21 20 20 20 20 21 21 20 20 20 20 20 20 21 21 21 21 21 21 21 21 21 21 20 20 19 19 18 17 17 16 16 16 16 17 16 16 16 16 16 16 16 15 15 14 13 13 13 13 13 13 13 13 13 12 12 12 11 11 11 11 11
22 21 21 21 21 21 22 22 21 21 21 21 21 20 20 20 20 20 21 21 21 21 20 21 21 21 20 20 20 20 20 20 20 20 19 19 18 18 18 17 17 16 16 16 16 17 17 16 16 16 16 16 16 15 15 15 14 14 13 13 12 12 12 12 13 13 12 12 12 11 11 11 11 11
21 21 21 21 21 21 21 21 21 21 21 20 20 20 20 20 20 20 21 20 20 20 20 20 20 20 20 20 19 20 20 20 19 19 18 18 17 17 17 17 17 16 16 17 17 17 16 16 16 15 16 16 15 15 15 14 14 14 13 12 12 12 12 12 13 13 13 12 12 11 11 11 11 11
22 21 21 21 21 21 21 21 21 21 20 20 20 20 20 20 20 20 20 20 20 19 19 19 19 19 19 19 19 19 19 19 19 18 18 18 18 17 17 17 17 16 17 17 17 16 16 16 16 15 15 15 15 15 14 14 14 13 13 12 12 12 12 13 13 13 12 12 12 11 11 11 11 11
22 22 21 21 21 21 21 20 20 20 20 20 20 20 20 20 20 20 20 20 20 19 19 19 19 18 18 18 18 18 19 18 18 18 18 18 18 17 17 17 17 16 17 17 17 17 16 17 16 15 15 15 15 15 14 14 14 13 13 12 12 12 12 13 13 12 12 12 12 11 11 11 11 11
21 21 21 21 21 21 21 20 20 20 20 20 20 20 20 20 20 20 20 20 20 19 19 19 19 19 18 18 18 18 18 18 18 18 18 18 18 18 18 17 17 17 18 18 17 17 17 17 16 15 15 15 14 14 14 14 14 14 13 12 12 12 12 12 13 12 12 12 12 11 11 11 11 11
21 21 21 21 21 21 21 21 20 20 20 20 20 20 20 20 20 20 20 20 20 19 19 19 19 19 18 18 18 17 17 18 18 17 17 17 17 17 18 18 17 17 18 18 17 17 17 17 16 15 15 15 14 14 14 14 14 13 13 12 12 12 12 12 12 12 12 12 12 11 11 11 11 11
21 21 21 21 21 21 21 21 21 20 20 20 20 20 20 20 20 20 19 19 19 20 19 19 18 18 18 18 17 17 17 17 17 17 17 17 17 17 17 18 18 18 18 17 17 17 17 17 16 16 15 15 14 14 14 14 14 13 13 12 12 12 12 12 12 12 12 12 11 11 11 11 11 10
21 21 21 21 21 21 21 21 21 21 20 20 20 20 20 19 19 19 19 19 19 19 19 19 18 18 18 18 17 17 17 17 17 17 17 17 17 17 17 17 17 17 17 17 17 17 17 17 16 16 16 15 14 14 14 14 14 14 13 12 12 11 11 12 12 12 11 11 11 11 11 11 11 10
22 22 22 21 21 21 21 21 21 21 21 21 20 20 20 19 19 19 19 19 19 19 18 18 18 18 18 18 18 18 17 17 17 17 17 17 17 17 17 17 17 16 17 17 17 17 17 17 16 16 15 15 14 14 14 14 14 14 13 12 12 11 12 12 12 12 12 12 11 11 11 11 11 10
22 22 22 22 22 22 21 21 21 21 21 21 21 21 20 20 20 20 20 20 19 18 18 18 18 18 18 18 18 18 18 17 17 17 16 16 16 16 16 16 16 16 16 16 16 16 16 16 16 15 15 15 14 14 14 14 14 14 13 12 12 12 12 12 13 13 12 11 11 11 11 11 11 11
22 22 21 21 21 21 21 21 21 21 21 21 21 21 20 20 19 20 20 20 19 19 19 18 18 18 18 18 18 17 17 17 17 16 16 16 16 16 16 15 15 15 15 15 15 15 16 16 16 15 15 14 13 13 14 14 14 14 13 13 12 12 13 13 13 13 12 11 11 11 11 11 11 11
21 21 21 21 21 21 21 20 20 20 20 20 20 20 20 19 19 19 19 19 20 20 19 19 18 18 18 17 17 16 16 16 16 16 16 15 15 15 15 15 15 15 15 15 15 15 15 15 15 15 15 14 13 13 14 14 14 14 14 13 13 13 13 13 13 13 12 11 11 11 11 11 11 11
21 21 21 21 21 20 20 20 20 20 20 20 20 20 19 19 19 19 19 19 19 19 19 19 18 17 17 16 16 15 15 15 15 15 15 15 15 15 15 15 15 15 15 14 14 14 14 15 15 15 14 13 13 13 13 14 14 14 14 13 13 13 13 13 13 13 12 11 11 11 11 11 11 11
21 21 21 21 20 20 20 20 20 20 20 20 20 20 20 20 19 19 19 19 19 19 19 19 18 17 16 16 15 15 15 15 15 15 15 15 15 15 15 15 15 15 14 14 14 14 14 14 14 14 13 12 12 13 13 14 14 14 14 13 13 13 13 13 13 13 12 11 11 11 11 11 11 11
21 21 20 20 20 20 20 20 20 20 20 20 20 20 20 20 20 20 19 19 19 19 19 19 18 17 16 16 15 15 15 15 15 15 15 14 15 14 14 14 14 14 14 14 14 14 14 13 13 13 12 12 12 12 12 13 14 14 13 13 13 13 13 13 13 12 12 11 10 10 11 11 11 11
20 20 20 20 20 20 20 20 20 20 20 20 20 20 19 19 20 19 20 20 19 19 18 18 17 16 16 16 16 16 16 15 15 14 14 14 14 14 14 14 14 14 14 14 14 14 13 13 13 12 12 11 11 11 12 13 13 13 13 13 13 13 13 13 12 12 11 10 10 10 10 11 11 10
21 21 21 21 21 20 20 20 20 20 20 20 19 18 17 18 18 18 18 18 18 18 18 18 17 17 16 16 15 15 15 15 14 14 14 14 14 14 14 14 14 13 13 14 14 14 13 13 12 12 11 11 11 11 12 13 13 13 13 13 13 13 13 12 12 12 11 10 10 10 10 10 11 10
21 21 21 21 21 20 20 20 20 20 19 19 19 17 16 16 16 16 16 17 17 17 17 17 17 17 16 16 15 15 15 14 14 14 14 14 13 13 13 13 13 13 14 14 14 14 13 13 12 11 11 11 11 11 13 13 12 12 12 12 12 12 12 12 11 11 11 11 10 10 10 10 10 10
21 21 20 20 20 20 20 20 20 19 19 19 18 18 17 15 14 14 14 15 16 16 17 17 17 17 17 16 16 15 15 14 14 14 13 13 13 13 13 13 12 13 13 13 13 13 13 12 12 12 12 11 11 12 13 13 12 12 12 12 12 12 12 11 11 11 11 11 11 11 10 10 10 10
20 20 20 20 20 20 19 19 18 18 17 17 17 16 15 14 13 13 14 14 14 15 16 16 16 16 16 16 15 15 14 14 14 14 13 13 13 13 13 12 12 12 12 12 13 12 12 11 12 12 12 12 13 13 14 13 12 12 12 12 12 12 12 11 11 11 11 11 11 11 10 10 10 10
19 19 19 18 18 18 18 18 17 16 16 15 14 14 14 13 13 13 13 14 14 14 14 15 15 15 16 15 15 15 14 14 14 14 13 13 13 12 12 11 11 12 12 12 12 11 11 12 12 12 12 12 13 13 12 12 11 11 11 11 12 12 11 11 11 11 11 11 11 11 10 10 10 10
18 18 18 18 17 17 17 17 16 16 15 14 14 14 14 13 13 13 13 13 13 14 14 14 14 14 15 15 15 15 14 14 14 13 12 11 11 11 10 10 11 12 12 12 12 11 12 12 12 12 12 12 12 12 11 11 11 11 11 11 11 11 11 11 11 11 11 11 11 11 10 10 10 10
18 17 17 17 17 17 17 17 16 16 15 15 14 14 14 14 14 14 14 14 14 14 14 14 14 14 14 14 15 14 14 13 12 12 11 10 10 10 11 12 13 12 12 12 12 12 12 12 12 12 12 12 12 11 11 11 11 11 11 11 11 11 11 11 11 11 11 11 11 11 10 10 10 10
17 17 17 17 17 17 17 17 17 16 16 16 15 15 14 14 14 14 14 14 14 14 14 13 13 13 13 13 13 14 14 13 11 11 10 10 11 12 13 13 13 13 13 13 12 11 11 11 11 12 12 12 12 11 12 12 12 12 11 11 11 11 11 11 11 11 11 11 11 11 11 10 10 10
16 16 16 16 17 17 17 17 17 16 16 16 16 15 15 14 13 13 13 13 13 13 13 13 12 12 12 12 12 12 13 13 13 13 12 12 13 13 13 13 13 13 13 12 12 11 11 12 12 12 12 12 12 12 12 12 11 11 11 11 11 11 11 11 11 11 11 11 11 11 11 10 10 10
15 15 16 16 16 16 16 16 16 16 16 15 15 16 15 14 13 13 13 12 12 12 13 13 12 13 13 13 13 13 13 13 13 13 13 13 13 13 12 12 12 12 12 11 11 11 11 12 12 12 12 12 12 12 12 11 11 11 11 11 11 11 11 10 11 11 11 11 11 11 11 11 10 10
Height
1583 1584 1584 1585 1586 1587 1587 1588 1590 1591 1591 1591 1592 1592 1592 1593 1593 1593 1594 1594 1594 1595 1595 1595 1595 1596 1596 1596 1596 1596 1596 1596 1595 1595 1595 1595 1594 1595 1595 1595 1595 1595 1595 1596 1596 1596 1596 1596 1596 1596 1596 1595 1595 1595 1594 1593 1592 1591 1590 1589 1588 1586 1585 1584 1583 1582 1581 1580 1579 1578 1577 1577 1576 1575
1581 1581 1582 1583 1584 1585 1586 1587 1588 1589 1590 1590 1590 1591 1591 1591 1591 1592 1592 1592 1593 1593 1594 1593 1594 1594 1594 1594 1594 1594 1595 1595 1594 1594 1594 1593 1593 1593 1593 1594 1594 1594 1594 1594 1594 1595 1595 1595 1595 1595 1594 1594 1594 1593 1593 1592 1591 1589 1588 1587 1586 1585 1583 1582 1581 1580 1579 1578 1577 1576 1576 1575 1574 1573
1579 1579 1580 1581 1582 1584 1584 1585 1586 1587 1588 1588 1588 1589 1589 1589 1590 1590 1590 1590 1591 1591 1592 1592 1592 1592 1592 1592 1593 1593 1593 1593 1593 1592 1592 1592 1592 1592 1592 1592 1592 1593 1593 1593 1593 1593 1593 1593 1593 1593 1593 1593 1592 1592 1591 1590 1589 1588 1586 1585 1584 1583 1582 1580 1580 1579 1578 1577 1575 1575 1574 1573 1572 1571
1577 1577 1578 1579 1580 1582 1583 1583 1584 1585 1585 1586 1586 1587 1587 1587 1588 1588 1588 1588 1588 1589 1590 1589 1590 1590 1590 1591 1591 1591 1591 1591 1591 1591 1590 1590 1590 1590 1590 1591 1591 1591 1591 1592 1592 1592 1592 1592 1592 1592 1591 1591 1591 1590 1590 1589 1587 1586 1584 1583 1582 1581 1580 1579 1578 1577 1576 1575 1573 1572 1571 1570 1570 1569
1574 1575 1576 1577 1578 1580 1581 1581 1582 1582 1583 1584 1584 1584 1585 1585 1585 1586 1586 1586 1586 1587 1587 1587 1588 1588 1588 1589 1589 1589 1589 1589 1589 1589 1588 1588 1588 1589 1589 1589 1589 1589 1590 1590 1590 1590 1590 1590 1590 1590 1590 1589 1589 1588 1588 1587 1585 1584 1582 1581 1580 1579 1578 1577 1576 1575 1574 1572 1571 1570 1569 1568 1567 1566
1571 1572 1573 1574 1575 1577 1578 1579 1579 1580 1580 1581 1581 1581 1582 1582 1583 1583 1584 1584 1584 1585 1585 1585 1585 1586 1586 1586 1586 1587 1587 1587 1587 1587 1586 1586 1586 1586 1587 1587 1587 1587 1587 1588 1588 1588 1588 1588 1588 1588 1588 1588 1587 1587 1586 1585 1584 1582 1580 1579 1578 1577 1576 1575 1574 1573 1572 1570 1569 1568 1567 1566 1565 1564
1568 1569 1570 1571 1572 1573 1574 1575 1576 1577 1577 1578 1578 1578 1579 1579 1579 1580 1580 1581 1581 1582 1583 1583 1583 1583 1583 1583 1583 1584 1584 1584 1584 1584 1584 1584 1584 1584 1584 1585 1585 1585 1585 1585 1586 1586 1586 1586 1586 1586 1586 1585 1585 1584 1584 1583 1581 1580 1578 1577 1576 1575 1574 1573 1572 1571 1570 1569 1567 1566 1565 1563 1562 1561
1564 1565 1566 1566 1568 1568 1569 1570 1572 1573 1573 1574 1574 1575 1575 1576 1576 1577 1577 1577 1578 1579 1580 1580 1580 1580 1580 1580 1581 1581 1581 1581 1581 1581 1581 1581 1581 1581 1582 1582 1582 1583 1583 1583 1583 1583 1583 1583 1583 1583 1583 1583 1583 1582 1581 1580 1579 1578 1576 1575 1574 1573 1572 1572 1571 1569 1568 1567 1566 1564 1563 1561 1560 1559
1560 1561 1561 1562 1563 1564 1564 1565 1567 1568 1569 1570 1570 1570 1571 1572 1573 1573 1573 1574 1575 1575 1576 1577 1577 1578 1577 1577 1578 1578 1578 1578 1579 1579 1579 1579 1579 1579 1579 1579 1580 1580 1580 1580 1580 1581 1581 1581 1581 1581 1581 1580 1580 1580 1579 1578 1577 1575 1574 1573 1572 1572 1571 1570 1569 1568 1567 1565 1564 1562 1561 1559 1558 1557
1557 1557 1557 1558 1559 1560 1560 1560 1561 1563 1564 1565 1565 1566 1567 1568 1569 1570 1570 1570 1571 1572 1572 1573 1574 1574 1574 1574 1574 1575 1575 1576 1576 1576 1576 1576 1576 1576 1576 1576 1577 1577 1577 1577 1578 1578 1578 1578 1578 1578 1578 1578 1577 1577 1576 1575 1574 1573 1572 1571 1570 1570 1569 1568 1567 1566 1565 1563 1562 1560 1559 1557 1556 1555
1553 1553 1554 1555 1555 1555 1555 1556 1557 1558 1560 1560 1561 1562 1563 1564 1565 1566 1566 1567 1567 1568 1568 1569 1570 1571 1571 1571 1571 1572 1573 1573 1573 1573 1573 1572 1572 1573 1573 1573 1574 1574 1574 1574 1575 1575 1575 1575 1575 1575 1575 1575 1574 1574 1573 1572 1571 1570 1569 1569 1568 1568 1567 1566 1565 1564 1563 1561 1560 1558 1557 1556 1554 1553
1548 1549 1549 1550 1551 1551 1551 1552 1553 1554 1556 1557 1558 1558 1559 1560 1561 1561 1562 1563 1563 1564 1564 1565 1566 1567 1567 1567 1568 1569 1569 1569 1568 1568 1569 1569 1569 1569 1569 1570 1571 1571 1571 1571 1571 1572 1572 1572 1572 1572 1572 1572 1572 1571 1570 1569 1568 1567 1567 1566 1565 1565 1564 1563 1562 1561 1560 1559 1558 1557 1555 1554 1553 1552
1543 1544 1545 1545 1546 1546 1547 1548 1549 1550 1552 1553 1554 1555 1555 1556 1556 1556 1558 1559 1559 1560 1560 1560 1562 1563 1563 1563 1563 1563 1563 1563 1563 1564 1565 1565 1566 1567 1566 1567 1567 1568 1568 1568 1568 1568 1569 1569 1569 1569 1569 1569 1569 1568 1567 1567 1566 1565 1564 1564 1563 1562 1562 1561 1560 1559 1559 1558 1556 1555 1554 1553 1551 1550
1538 1539 1539 1540 1541 1542 1543 1544 1545 1546 1547 1547 1549 1550 1551 1552 1552 1552 1553 1554 1554 1555 1555 1555 1556 1557 1556 1557 1557 1557 1557 1558 1560 1561 1561 1562 1563 1564 1563 1563 1563 1564 1565 1565 1565 1565 1565 1566 1566 1566 1566 1566 1566 1565 1565 1564 1564 1563 1562 1561 1561 1560 1560 1559 1558 1557 1557 1556 1555 1553 1552 1551 1550 1548
1533 1534 1535 1536 1537 1538 1539 1540 1541 1542 1543 1543 1544 1546 1547 1547 1547 1547 1548 1549 1549 1549 1549 1549 1550 1550 1550 1551 1552 1553 1554 1555 1556 1556 1557 1558 1559 1559 1559 1559 1559 1560 1561 1562 1561 1561 1562 1562 1562 1562 1563 1563 1562 1562 1562 1562 1561 1560 1560 1559 1558 1558 1557 1557 1556 1555 1554 1554 1553 1552 1550 1549 1548 1547
1529 1530 1531 1532 1532 1533 1534 1535 1536 1537 1538 1539 1540 1541 1542 1542 1543 1543 1544 1544 1544 1544 1544 1544 1544 1543 1544 1546 1547 1548 1549 1550 1551 1552 1553 1554 1554 1554 1554 1554 1554 1555 1557 1558 1558 1557 1558 1558 1559 1559 1559 1560 1559 1559 1559 1559 1559 1558 1557 1557 1556 1556 1555 1555 1554 1553 1552 1551 1550 1550 1549 1547 1546 1545
1526 1526 1527 1528 1528 1528 1529 1531 1532 1532 1533 1534 1535 1536 1537 1537 1538 1539 1539 1539 1539 1539 1539 1539 1537 1537 1539 1539 1540 1542 1544 1546 1546 1546 1547 1548 1549 1549 1549 1549 1550 1552 1553 1554 1554 1554 1554 1555 1554 1555 1556 1556 1556 1555 1555 1555 1555 1556 1555 1555 1554 1553 1553 1552 1552 1551 1550 1549 1548 1548 1547 1546 1545 1544
1522 1523 1524 1524 1524 1525 1526 1526 1527 1528 1529 1531 1531 1532 1532 1532 1533 1533 1533 1533 1533 1534 1534 1532 1531 1532 1533 1533 1534 1537 1539 1540 1540 1540 1541 1542 1542 1542 1543 1544 1546 1548 1548 1550 1550 1550 1550 1551 1550 1550 1552 1552 1552 1552 1551 1551 1552 1553 1553 1553 1552 1551 1551 1550 1550 1549 1548 1547 1547 1546 1546 1545 1544 1543
1519 1520 1520 1520 1520 1521 1522 1522 1523 1524 1525 1526 1526 1526 1526 1526 1527 1527 1525 1526 1527 1527 1526 1525 1525 1526 1527 1528 1530 1532 1534 1533 1534 1535 1536 1537 1538 1539 1539 1540 1542 1543 1544 1545 1546 1545 1545 1547 1547 1547 1548 1548 1547 1548 1548 1548 1548 1549 1550 1550 1550 1549 1548 1548 1548 1547 1547 1546 1545 1545 1544 1543 1542 1542
1516 1517 1517 1517 1517 1517 1517 1519 1520 1520 1522 1522 1521 1520 1520 1521 1521 1519 1518 1519 1519 1519 1520 1520 1521 1522 1522 1524 1525 1527 1528 1529 1530 1532 1533 1534 1535 1535 1535 1535 1536 1537 1538 1540 1540 1541 1542 1543 1544 1544 1545 1544 1544 1544 1544 1544 1545 1546 1547 1547 1547 1547 1546 1546 1546 1546 1545 1544 1544 1543 1543 1542 1541 1541
1513 1513 1513 1513 1514 1513 1514 1515 1516 1517 1518 1517 1516 1515 1515 1516 1515 1510 1510 1513 1514 1514 1515 1516 1516 1517 1518 1519 1521 1522 1523 1524 1526 1527 1527 1526 1528 1528 1528 1528 1529 1531 1532 1533 1535 1537 1538 1539 1540 1541 1542 1541 1541 1542 1542 1542 1542 1543 1543 1544 1544 1544 1544 1544 1544 1544 1543 1542 1542 1542 1542 1541 1540 1540
1509 1509 1509 1510 1510 1510 1510 1512 1512 1513 1514 1513 1511 1510 1510 1510 1506 1501 1504 1508 1508 1508 1510 1511 1512 1513 1514 1515 1515 1516 1517 1518 1520 1520 1518 1519 1521 1521 1520 1522 1524 1525 1526 1527 1529 1531 1533 1535 1536 1537 1538 1538 1539 1539 1539 1539 1539 1539 1540 1541 1541 1542 1542 1542 1542 1541 1541 1540 1540 1540 1540 1539 1539 1538
1504 1504 1504 1505 1505 1506 1506 1507 1508 1508 1508 1507 1506 1506 1506 1503 1495 1493 1500 1503 1502 1503 1505 1505 1507 1507 1508 1509 1510 1510 1511 1512 1513 1513 1513 1514 1515 1514 1515 1517 1519 1520 1520 1522 1524 1525 1527 1530 1531 1532 1534 1534 1535 1536 1536 1535 1535 1536 1537 1538 1539 1539 1539 1539 1539 1539 1539 1538 1538 1538 1538 1538 1537 1537
1499 1499 1500 1500 1500 1501 1502 1502 1503 1503 1503 1502 1501 1502 1500 1493 1487 1491 1498 1500 1500 1501 1501 1500 1502 1502 1502 1504 1504 1504 1505 1506 1507 1507 1508 1509 1510 1511 1513 1514 1514 1513 1514 1517 1520 1521 1522 1525 1526 1528 1529 1529 1530 1531 1532 1532 1532 1533 1534 1535 1535 1536 1536 1536 1536 1536 1536 1536 1536 1536 1536 1536 1536 1535
1493 1493 1495 1495 1496 1496 1497 1497 1498 1497 1497 1496 1496 1494 1489 1483 1485 1493 1497 1497 1499 1501 1499 1497 1498 1498 1498 1498 1498 1498 1499 1500 1501 1502 1504 1505 1507 1508 1509 1510 1510 1511 1513 1515 1517 1517 1519 1520 1522 1523 1524 1524 1525 1527 1528 1528 1529 1529 1530 1531 1532 1533 1533 1533 1533 1534 1534 1534 1534 1534 1534 1534 1534 1534
1487 1489 1490 1490 1491 1491 1491 1491 1492 1492 1491 1490 1488 1484 1481 1481 1486 1491 1493 1494 1497 1496 1493 1491 1491 1490 1490 1490 1490 1491 1492 1493 1496 1498 1499 1501 1502 1503 1504 1504 1506 1507 1509 1512 1513 1514 1515 1516 1517 1518 1519 1520 1521 1523 1524 1525 1525 1526 1527 1528 1529 1530 1530 1530 1530 1531 1531 1532 1532 1532 1532 1532 1532 1532
1483 1484 1485 1485 1486 1487 1487 1486 1486 1486 1485 1483 1480 1477 1476 1479 1483 1486 1489 1491 1490 1486 1484 1482 1480 1478 1479 1480 1481 1483 1485 1487 1490 1493 1494 1495 1496 1497 1498 1500 1502 1504 1506 1509 1510 1510 1511 1512 1513 1514 1515 1516 1518 1519 1519 1521 1522 1523 1524 1525 1526 1527 1527 1527 1527 1528 1528 1529 1529 1530 1530 1530 1530 1529
1479 1480 1481 1482 1482 1482 1482 1482 1481 1480 1478 1476 1474 1472 1472 1474 1477 1480 1482 1481 1479 1478 1476 1472 1468 1467 1468 1469 1470 1472 1476 1480 1484 1486 1488 1489 1490 1491 1493 1495 1498 1500 1503 1504 1504 1504 1506 1508 1509 1511 1512 1513 1514 1515 1516 1517 1518 1520 1521 1522 1523 1523 1524 1524 1524 1524 1525 1526 1527 1527 1528 1527 1528 1527
1477 1478 1478 1478 1478 1478 1477 1477 1476 1474 1472 1470 1469 1467 1466 1467 1470 1472 1472 1471 1471 1470 1466 1462 1460 1458 1458 1458 1459 1463 1468 1473 1476 1478 1480 1483 1485 1486 1489 1491 1493 1495 1497 1498 1499 1500 1501 1503 1505 1507 1508 1509 1511 1512 1513 1514 1515 1516 1517 1518 1519 1520 1521 1521 1521 1522 1523 1524 1524 1525 1525 1525 1525 1525
1474 1474 1475 1474 1474 1473 1473 1472 1471 1468 1466 1465 1464 1463 1462 1462 1462 1463 1464 1464 1464 1461 1457 1455 1454 1451 1451 1453 1456 1459 1462 1464 1465 1468 1472 1475 1478 1480 1482 1485 1487 1489 1491 1492 1494 1496 1497 1498 1500 1503 1504 1506 1507 1508 1509 1510 1511 1513 1514 1515 1516 1517 1518 1518 1518 1518 1519 1521 1522 1523 1523 1523 1523 1522
1471 1471 1470 1470 1469 1469 1468 1467 1466 1464 1462 1461 1459 1458 1458 1458 1456 1455 1455 1456 1454 1451 1448 1446 1444 1443 1446 1449 1452 1456 1458 1458 1459 1463 1467 1470 1472 1475 1478 1480 1482 1484 1486 1487 1489 1492 1494 1494 1495 1498 1500 1502 1504 1505 1506 1507 1507 1509 1510 1511 1513 1514 1514 1515 1515 1516 1517 1518 1519 1520 1520 1520 1520 1520
1466 1466 1465 1465 1465 1464 1464 1463 1461 1460 1457 1456 1454 1453 1452 1452 1450 1449 1448 1447 1445 1442 1440 1438 1437 1437 1440 1443 1446 1449 1452 1454 1455 1459 1462 1465 1466 1468 1471 1473 1475 1477 1479 1481 1483 1487 1489 1490 1492 1493 1495 1498 1501 1502 1502 1503 1504 1505 1506 1508 1509 1510 1511 1512 1513 1513 1514 1516 1516 1517 1518 1518 1518 1517
1463 1462 1461 1461 1461 1460 1459 1458 1456 1454 1452 1450 1448 1447 1446 1445 1443 1442 1441 1439 1436 1435 1433 1431 1429 1429 1432 1437 1441 1444 1446 1448 1449 1450 1453 1457 1458 1459 1461 1463 1466 1468 1469 1471 1475 1479 1483 1486 1489 1490 1491 1494 1497 1498 1498 1499 1500 1501 1503 1504 1506 1507 1508 1509 1510 1511 1512 1513 1513 1515 1515 1515 1515 1515
1459 1458 1457 1456 1456 1456 1455 1453 1451 1449 1447 1444 1442 1440 1439 1437 1435 1434 1433 1430 1428 1427 1426 1423 1421 1421 1423 1427 1432 1434 1436 1437 1438 1438 1441 1445 1447 1448 1449 1453 1457 1460 1462 1464 1468 1473 1478 1482 1485 1487 1488 1491 1494 1495 1495 1495 1497 1498 1499 1501 1502 1504 1506 1507 1507 1508 1509 1509 1511 1512 1512 1512 1512 1512
1454 1453 1452 1451 1451 1450 1448 1447 1445 1443 1441 1438 1435 1433 1431 1429 1427 1425 1422 1420 1420 1419 1418 1417 1417 1416 1415 1416 1418 1419 1421 1424 1426 1428 1430 1433 1435 1437 1439 1443 1447 1452 1455 1460 1465 1469 1473 1477 1481 1483 1485 1487 1490 1491 1491 1492 1494 1495 1496 1497 1499 1501 1503 1504 1505 1505 1506 1507 1508 1509 1509 1509 1509 1509
1450 1449 1447 1446 1445 1443 1441 1439 1438 1436 1433 1430 1428 1426 1423 1421 1418 1416 1414 1413 1413 1413 1412 1411 1410 1409 1408 1407 1407 1409 1411 1414 1417 1418 1418 1420 1422 1427 1432 1437 1440 1444 1449 1453 1459 1464 1468 1472 1475 1479 1481 1483 1485 1485 1486 1488 1490 1491 1492 1494 1496 1499 1501 1502 1502 1503 1503 1504 1505 1506 1506 1506 1506 1506
1446 1445 1443 1441 1440 1438 1435 1433 1431 1429 1426 1424 1421 1418 1416 1413 1411 1410 1409 1409 1409 1407 1405 1404 1402 1399 1399 1399 1399 1401 1402 1403 1404 1406 1406 1409 1414 1420 1426 1430 1433 1437 1441 1446 1451 1457 1463 1467 1471 1474 1476 1478 1480 1481 1482 1484 1487 1488 1489 1492 1494 1496 1498 1499 1499 1500 1500 1501 1503 1504 1504 1504 1503 1503
1444 1442 1441 1439 1437 1434 1431 1429 1426 1423 1420 1418 1414 1411 1408 1406 1404 1403 1403 1404 1403 1401 1399 1397 1394 1391 1390 1389 1387 1387 1389 1391 1394 1396 1398 1401 1406 1411 1415 1420 1426 1431 1437 1443 1448 1453 1459 1464 1468 1471 1472 1473 1474 1476 1479 1481 1484 1485 1487 1489 1491 1493 1495 1496 1496 1497 1497 1499 1500 1501 1501 1501 1501 1501
1442 1440 1438 1436 1434 1431 1428 1425 1421 1418 1415 1412 1409 1405 1402 1400 1398 1397 1397 1396 1396 1395 1392 1390 1387 1385 1383 1381 1379 1379 1380 1382 1385 1387 1390 1393 1397 1401 1407 1413 1419 1426 1436 1443 1448 1451 1456 1462 1465 1466 1468 1469 1471 1474 1477 1479 1481 1483 1484 1486 1488 1490 1492 1493 1494 1494 1495 1496 1497 1498 1498 1498 1498 1498
1439 1437 1435 1432 1430 1427 1424 1420 1417 1413 1410 1407 1404 1401 1398 1395 1393 1392 1390 1389 1388 1387 1385 1383 1382 1380 1379 1378 1377 1376 1374 1372 1373 1376 1379 1382 1387 1393 1400 1407 1414 1423 1434 1443 1449 1452 1455 1458 1460 1463 1466 1469 1472 1475 1477 1478 1479 1480 1482 1484 1486 1488 1490 1490 1491 1492 1492 1493 1495 1495 1496 1496 1496 1496
1436 1434 1432 1430 1427 1424 1421 1418 1414 1411 1407 1403 1400 1397 1394 1392 1389 1387 1385 1383 1382 1380 1378 1377 1376 1375 1373 1373 1373 1373 1370 1368 1368 1371 1374 1380 1386 1393 1397 1404 1415 1426 1435 1444 1450 1453 1454 1456 1460 1463 1467 1470 1472 1474 1474 1475 1476 1478 1480 1482 1484 1486 1487 1488 1488 1489 1490 1491 1492 1492 1493 1494 1494 1494
1434 1432 1430 1428 1425 1422 1419 1416 1413 1409 1405 1401 1398 1394 1391 1388 1385 1383 1381 1379 1377 1375 1373 1371 1370 1368 1366 1365 1366 1368 1371 1371 1371 1370 1370 1374 1385 1395 1402 1408 1419 1429 1436 1443 1449 1453 1455 1459 1462 1465 1467 1469 1470 1471 1471 1472 1474 1476 1478 1480 1482 1483 1485 1485 1486 1487 1487 1488 1489 1490 1490 1491 1491 1491
1432 1431 1429 1427 1424 1421 1418 1415 1411 1407 1403 1400 1396 1392 1389 1386 1382 1380 1377 1375 1373 1371 1368 1366 1365 1364 1362 1360 1358 1359 1365 1373 1380 1383 1382 1381 1387 1399 1408 1414 1421 1429 1435 1442 1448 1452 1456 1460 1462 1464 1465 1466 1467 1468 1470 1471 1473 1475 1476 1478 1480 1481 1482 1483 1483 1484 1485 1486 1486 1487 1488 1489 1489 1488
1431 1429 1427 1425 1422 1419 1416 1413 1410 1406 1402 1399 1395 1391 1388 1384 1381 1378 1376 1373 1371 1369 1367 1366 1364 1362 1363 1364 1363 1363 1366 1373 1382 1392 1398 1399 1401 1408 1415 1420 1425 1431 1436 1441 1446 1450 1455 1458 1461 1462 1463 1464 1466 1467 1468 1470 1471 1473 1474 1476 1477 1479 1479 1480 1481 1482 1482 1483 1484 1484 1485 1486 1486 1486
1430 1428 1426 1423 1421 1418 1416 1413 1410 1406 1403 1399 1396 1392 1390 1386 1383 1381 1378 1376 1374 1372 1371 1370 1369 1368 1369 1372 1374 1376 1380 1384 1388 1393 1400 1405 1410 1415 1421 1426 1430 1433 1437 1440 1445 1449 1453 1457 1459 1460 1461 1463 1464 1466 1467 1468 1470 1471 1472 1474 1475 1476 1477 1478 1479 1480 1480 1480 1481 1482 1482 1483 1483 1484
Wind_Speed
16 15 15 17 17 15 15 14 14 13 14 15 13 11 13 16 16 14 14 15 12 9 11 15 14 14 15 14 14 13 13 13 13 12 12 12 11 11 11 11 11 11 11 11 11 11 11 11 11 11 12 12 13 13 14 16 17 18 20 20 20 20 19 19 19 18 17 17 16 15 14 13 13 14
17 17 16 15 18 18 17 17 17 16 15 16 15 13 13 15 16 16 16 15 13 10 10 13 14 14 16 16 15 14 14 14 14 13 12 12 12 11 11 12 12 12 11 11 11 12 12 12 12 12 12 13 13 14 16 17 18 20 20 21 21 20 20 20 20 20 19 18 17 16 16 15 15 15
19 20 18 16 17 20 20 20 20 19 18 18 18 16 16 16 16 16 17 17 15 11 11 13 13 13 14 15 14 14 15 15 14 14 13 13 13 13 12 12 11 11 12 12 12 12 12 13 13 13 13 13 14 16 17 18 19 20 21 21 21 21 22 22 22 21 20 19 18 18 17 17 16 16
21 21 21 18 16 19 22 23 22 22 22 22 21 20 21 21 19 18 19 21 18 14 14 15 15 13 12 13 14 16 17 15 13 12 12 13 13 13 13 12 12 12 12 13 13 13 13 13 13 13 13 14 16 17 18 19 20 21 21 21 22 22 23 23 23 22 21 21 20 20 19 18 17 17
23 23 22 21 18 18 22 24 24 24 24 25 25 24 24 24 23 21 20 21 21 18 17 17 18 16 14 14 16 17 16 14 11 10 11 12 12 12 12 13 13 13 13 13 13 14 14 14 14 14 15 16 16 17 18 19 20 20 21 22 23 23 23 23 22 21 20 20 20 20 20 20 19 18
25 25 24 23 22 21 22 24 26 26 26 26 27 26 24 23 23 22 20 20 21 20 21 20 19 19 18 18 18 17 16 13 12 11 12 12 12 12 12 12 13 13 14 14 14 14 14 14 15 15 16 16 17 17 18 19 19 19 20 22 22 22 22 21 20 19 18 18 18 19 19 19 18 18
27 27 27 26 25 24 24 24 26 27 28 28 27 27 25 24 23 22 21 21 21 20 21 22 21 20 21 20 18 18 17 15 15 14 13 13 13 13 12 13 13 14 14 14 14 14 14 15 15 16 16 17 17 17 18 18 19 19 21 21 20 19 18 17 15 14 15 15 16 17 17 17 17 17
28 29 29 28 28 28 27 26 26 27 29 29 29 28 26 25 24 24 23 23 22 21 21 23 23 23 23 23 21 20 19 18 17 16 15 15 14 14 13 13 14 15 15 15 14 15 15 15 15 16 16 16 16 16 17 18 19 19 20 19 17 15 14 13 13 13 13 15 16 17 18 18 18 18
29 30 30 30 30 30 31 30 29 29 29 30 30 30 29 27 26 25 26 25 24 23 22 23 24 24 25 25 24 23 22 21 20 18 17 16 16 15 15 15 15 15 15 16 16 16 15 15 15 15 16 16 16 16 18 19 19 19 19 16 13 12 12 12 13 13 14 15 17 18 19 20 20 20
31 32 32 31 32 33 33 33 32 31 31 31 31 32 31 30 28 28 28 28 27 26 25 23 24 25 26 26 26 26 25 23 22 20 18 18 18 18 18 17 16 15 16 17 17 17 16 15 15 15 16 16 16 17 19 19 19 18 17 14 11 12 13 13 15 15 15 15 16 17 18 19 20 20
33 33 33 34 34 35 36 36 35 34 33 33 33 33 33 33 32 31 30 30 30 29 28 26 25 26 26 26 26 26 25 25 24 23 21 21 21 20 19 18 17 16 17 19 19 18 17 17 17 17 17 17 17 18 19 19 19 18 16 13 12 14 15 16 18 19 18 15 14 15 16 16 17 17
35 35 35 36 36 37 37 37 37 37 35 35 35 34 34 34 35 34 34 33 32 32 31 30 29 27 27 28 27 26 26 28 27 24 23 23 21 20 20 19 18 17 18 19 19 19 18 17 18 19 19 18 17 18 19 19 20 18 14 13 14 16 17 18 20 21 18 14 13 13 13 13 14 14
38 38 38 38 38 38 38 38 38 38 38 37 37 36 35 35 36 37 37 36 35 35 35 34 32 31 31 31 30 30 30 30 27 23 23 23 20 20 21 21 20 20 19 19 19 19 18 18 19 20 19 18 18 18 19 20 19 16 13 13 14 16 18 20 22 20 16 13 12 12 11 11 11 12
40 40 40 41 40 40 40 39 39 39 40 40 39 38 37 37 38 39 39 39 39 38 38 38 37 36 36 35 34 34 32 30 28 26 25 24 21 20 22 23 22 22 20 19 20 20 19 19 20 20 20 19 19 19 19 18 16 14 12 12 14 16 18 21 21 18 14 13 12 11 10 10 10 10
42 42 42 42 42 42 42 42 42 41 41 41 41 40 40 39 39 40 41 41 41 41 42 41 40 40 40 38 37 36 34 32 31 29 27 26 24 24 25 25 23 22 21 20 21 20 20 20 21 21 20 19 19 19 18 16 14 12 11 13 15 16 19 20 19 16 14 13 11 10 10 9 9 9
44 44 44 44 44 45 44 44 44 44 43 43 43 42 42 41 41 41 42 43 43 43 43 43 43 43 42 41 39 38 36 34 33 32 30 28 27 26 27 26 24 21 19 20 21 20 20 20 21 21 21 19 19 18 17 15 13 12 13 15 16 17 18 19 17 15 14 13 11 10 8 7 7 7
46 46 46 46 46 46 46 46 46 45 45 45 44 44 44 43 42 42 43 44 44 44 44 44 45 44 43 42 41 39 37 35 34 34 33 30 28 29 29 27 24 21 20 21 21 21 21 20 21 21 19 18 19 17 16 14 14 14 16 17 16 17 17 16 16 15 14 12 10 8 6 6 6 7
48 47 47 47 48 47 47 47 47 47 47 46 46 46 46 46 45 44 45 46 46 46 46 47 47 45 44 43 41 37 36 36 36 36 34 31 30 29 27 24 21 21 22 22 22 23 22 20 21 21 18 18 19 17 15 14 14 15 17 17 17 16 15 14 15 14 12 10 9 7 6 7 7 8
49 49 48 49 49 48 48 48 48 48 48 48 48 48 49 48 47 47 48 48 48 48 49 49 49 47 46 44 41 38 37 37 37 35 33 30 28 26 25 24 24 24 25 24 24 25 22 21 22 21 18 17 18 17 16 15 15 17 19 19 18 15 13 14 15 12 10 9 8 6 6 7 8 9
49 49 49 50 50 50 50 49 49 48 48 48 50 50 51 50 50 51 51 50 50 50 50 50 49 48 47 46 44 40 38 38 37 35 33 31 29 29 29 29 29 28 28 27 27 26 22 21 22 21 18 18 18 17 16 15 16 18 19 19 17 14 13 15 15 11 8 7 6 6 6 7 8 9
48 49 50 50 51 51 51 50 49 49 48 49 51 52 52 51 53 55 55 53 52 52 52 51 50 49 48 47 46 43 41 40 38 37 38 37 36 35 35 34 33 33 32 30 29 27 24 22 22 21 20 19 18 18 17 15 15 17 17 17 16 14 14 15 13 11 8 6 5 5 6 7 8 9
45 47 49 50 50 51 51 50 50 49 49 50 52 53 53 53 56 59 57 55 55 55 54 53 51 51 50 49 48 46 44 43 41 42 43 42 40 40 40 39 37 35 35 32 30 28 26 23 23 23 21 19 19 19 16 15 15 16 16 15 15 16 15 14 12 10 8 6 6 5 5 6 8 9
44 46 47 48 50 50 50 50 50 50 50 52 53 53 53 55 60 61 57 56 56 57 56 55 54 54 53 52 51 50 48 46 45 46 46 45 44 44 44 42 39 38 38 34 31 30 27 24 24 24 22 20 20 19 16 14 15 15 16 16 17 17 15 13 11 10 8 8 7 6 6 7 8 10
45 45 46 47 48 49 50 50 50 50 50 52 53 53 55 60 63 60 56 55 56 56 57 57 56 56 55 55 54 53 51 49 48 48 48 48 47 46 45 44 43 42 38 34 32 32 28 24 24 25 23 20 20 18 15 14 15 15 17 18 18 16 14 12 11 9 9 10 8 7 8 8 9 11
47 47 46 46 46 47 48 49 49 50 51 51 52 54 58 62 62 57 55 55 54 54 56 57 57 56 57 57 57 56 55 54 52 51 50 50 50 48 47 45 44 43 38 33 31 32 29 26 25 26 24 22 21 19 16 15 16 17 18 18 18 16 15 13 11 11 12 11 9 9 10 10 10 11
47 47 46 45 45 45 46 47 48 50 51 51 53 56 59 60 58 56 55 54 52 54 57 58 58 58 58 59 60 59 58 56 55 53 52 52 52 51 50 47 44 42 39 34 32 32 31 28 26 26 25 23 22 21 19 17 17 18 18 18 17 16 16 14 12 12 13 12 11 11 12 11 12 11
42 42 42 43 43 44 44 45 46 47 49 51 53 56 57 56 55 55 53 52 53 56 58 59 60 61 60 60 61 61 60 58 56 55 55 54 54 53 51 48 44 39 36 34 34 33 32 29 27 25 23 21 22 22 21 19 19 18 18 18 17 16 16 15 13 13 13 13 13 13 12 12 11 12
36 37 38 38 38 38 39 39 40 42 46 49 51 53 53 53 52 51 52 54 57 58 59 61 63 64 64 63 63 63 62 60 58 57 57 56 55 53 51 48 43 39 35 35 36 35 33 31 28 25 21 21 23 24 22 20 19 18 18 19 19 19 18 16 16 14 13 13 13 12 12 11 11 13
35 36 36 35 35 36 36 36 38 41 44 46 49 50 51 51 50 48 48 52 55 59 62 64 65 66 66 66 65 64 62 60 60 60 58 56 54 53 50 47 43 39 37 38 38 35 33 31 29 25 22 22 25 25 23 21 19 18 19 20 20 20 19 18 16 13 11 10 10 10 10 11 12 15
37 38 39 39 40 40 41 42 43 45 46 48 50 52 52 52 51 50 48 48 51 57 63 65 66 68 67 65 62 60 59 60 61 61 59 56 55 54 51 48 44 41 40 41 39 36 34 33 31 27 23 23 25 26 23 21 19 19 19 19 19 19 18 17 15 13 12 11 10 9 10 12 14 16
35 37 39 42 44 45 46 47 49 50 52 53 55 56 55 55 54 54 54 52 53 56 60 63 67 68 65 61 58 56 57 59 60 59 58 57 56 55 53 50 47 46 44 43 40 38 37 35 32 27 23 23 25 25 23 21 20 19 18 17 17 17 16 14 14 14 13 11 10 10 12 14 15 16
28 31 34 38 41 43 46 48 50 52 54 56 58 59 59 59 58 58 57 56 57 59 61 63 65 62 57 55 55 55 55 56 57 57 57 57 57 57 56 54 52 50 49 45 42 40 39 37 33 27 23 23 25 24 21 20 18 17 16 15 16 16 15 14 14 13 12 11 10 11 13 14 16 18
26 28 30 32 33 36 39 42 45 47 50 52 55 57 58 59 60 60 60 61 62 64 64 65 65 61 55 51 50 52 53 55 57 58 58 59 59 59 59 58 56 55 54 50 46 43 41 37 32 26 22 21 21 20 20 19 16 14 13 14 15 16 15 14 13 13 12 11 10 12 15 17 18 19
30 31 33 34 35 36 38 41 44 46 48 50 53 55 56 57 59 60 62 64 65 67 68 68 66 62 58 55 52 52 55 58 60 62 62 62 62 62 62 61 59 58 56 52 47 45 42 37 30 25 22 20 18 18 20 18 15 12 12 14 15 15 14 12 13 13 12 10 12 15 18 19 19 16
34 36 37 38 39 41 42 45 47 49 51 53 55 57 58 59 61 62 64 66 66 66 68 67 62 57 57 58 58 59 60 61 62 63 64 65 65 65 65 63 60 58 55 51 46 45 42 36 30 26 24 22 21 21 21 19 15 12 12 14 15 14 12 11 11 12 11 12 15 18 19 20 17 11
33 34 35 36 37 38 40 42 44 46 48 50 52 52 53 56 58 61 63 64 64 63 63 64 62 59 58 58 59 60 61 63 64 65 65 66 67 66 65 63 60 57 54 50 47 45 41 36 31 29 28 27 27 26 23 18 13 11 12 13 13 12 11 10 11 11 11 13 15 18 19 19 14 8
26 27 28 30 31 33 35 37 39 41 43 45 47 47 48 51 54 56 57 58 58 58 59 60 62 62 60 59 59 60 61 63 66 68 68 68 67 66 63 62 60 58 55 52 48 45 40 35 31 30 30 31 32 29 21 14 11 12 14 14 13 12 12 13 13 11 11 12 15 17 17 16 12 8
19 20 21 23 26 28 30 33 35 37 39 40 43 44 44 45 47 49 51 52 52 53 53 55 58 62 62 62 62 63 64 65 66 67 68 67 67 67 65 62 59 56 54 51 47 43 38 34 31 30 31 33 33 28 20 15 13 14 15 15 14 14 15 16 14 11 10 12 14 14 13 12 10 9
15 16 19 21 23 25 27 29 30 32 34 34 36 37 37 37 38 40 42 45 46 46 47 49 54 58 60 61 60 60 62 65 66 67 68 68 68 68 65 61 56 52 49 46 43 38 35 32 31 32 34 33 28 19 13 11 12 12 12 13 13 14 16 16 13 10 10 12 12 12 11 11 10 10
14 16 18 20 22 24 26 28 29 30 30 31 31 32 33 34 34 34 36 39 40 42 43 46 48 49 51 53 55 58 62 66 69 69 68 69 68 65 61 56 53 48 45 41 37 33 31 31 31 31 30 26 19 12 9 9 11 13 13 13 13 13 13 12 11 11 11 10 10 11 11 11 11 12
16 17 18 19 22 24 25 27 28 28 28 28 28 29 30 31 32 33 33 33 35 37 39 42 43 45 46 47 50 54 57 62 67 66 61 56 53 51 50 49 46 41 38 34 30 29 29 27 25 24 23 21 17 15 15 15 16 17 17 16 15 13 12 11 11 11 10 9 10 12 12 11 12 13
15 17 18 20 22 25 26 26 27 28 27 25 24 25 26 26 27 28 27 28 28 30 33 36 39 43 44 44 47 49 44 42 47 52 54 53 48 43 41 40 38 34 32 28 28 30 29 25 22 21 21 21 21 21 20 19 18 17 16 16 15 14 13 12 12 11 10 10 11 12 12 11 12 14
16 17 18 20 23 25 25 26 28 30 29 26 25 26 27 26 25 25 25 26 26 26 27 30 33 34 30 29 39 48 42 30 25 27 36 44 46 41 37 35 33 31 28 26 27 30 29 26 24 23 22 22 22 21 20 19 17 15 14 13 13 12 12 13 13 12 12 12 13 13 12 11 13 14
17 17 17 18 21 23 23 25 28 30 29 28 29 30 30 28 27 26 25 23 21 20 21 20 17 13 7 11 19 28 33 32 31 30 32 36 36 34 32 30 28 25 25 25 27 29 28 26 25 25 24 24 23 20 18 16 15 13 12 13 13 11 11 12 12 12 13 14 13 12 11 12 13 14
17 17 16 16 17 19 21 23 26 27 25 25 27 28 28 26 23 20 17 13 9 6 4 6 11 16 20 26 31 33 35 36 36 35 34 32 30 27 25 24 23 22 24 25 25 26 25 23 23 24 24 23 21 19 16 15 14 13 14 15 14 12 12 12 12 13 14 14 12 11 11 11 12 12
Wind_Direction
231 228 223 229 227 204 188 199 217 228 234 232 232 237 229 218 215 218 220 225 238 244 231 229 233 239 244 250 259 267 274 281 282 279 277 274 269 266 266 265 264 265 266 264 263 263 263 265 267 270 275 281 288 292 297 301 303 306 308 308 307 305 304 303 303 303 302 302 301 302 302 301 301 301
232 236 232 229 227 215 199 198 210 221 230 235 233 230 230 227 227 230 228 228 237 235 224 229 237 242 245 246 252 259 267 275 279 278 275 273 271 269 267 263 260 262 266 266 265 264 265 266 267 268 272 279 286 290 295 299 303 306 307 306 305 304 303 302 302 302 302 302 301 300 300 300 301 301
233 235 237 233 225 218 211 204 206 214 221 229 235 233 231 231 234 238 234 231 236 232 225 232 240 245 247 246 248 254 264 274 279 276 272 270 268 267 266 263 261 262 265 265 263 263 264 264 265 268 272 279 285 290 295 299 302 304 302 301 301 301 301 301 302 302 303 304 304 303 302 301 302 302
237 235 236 238 233 220 217 214 211 214 219 224 230 234 236 238 242 243 238 237 238 232 227 233 237 239 240 241 245 254 264 273 275 270 267 267 264 264 266 267 266 264 263 263 263 262 263 263 264 267 273 279 283 289 295 299 300 300 298 297 297 298 299 300 300 301 302 303 305 305 306 306 306 305
240 239 237 239 241 230 222 222 220 219 221 224 228 232 235 239 244 244 241 240 239 232 228 233 236 237 237 239 246 255 261 267 270 265 261 262 262 263 265 266 266 262 259 260 263 262 262 262 262 267 273 278 282 288 294 297 297 296 295 295 296 297 299 300 300 300 301 302 303 304 305 306 306 306
242 242 241 239 241 240 234 230 228 227 227 228 231 236 238 240 242 243 241 239 238 234 231 233 236 237 237 240 246 253 259 266 272 268 261 261 263 263 261 260 260 259 257 258 261 261 258 257 260 267 274 277 281 287 292 295 296 296 297 297 298 300 301 301 301 301 301 302 302 303 303 303 303 303
244 243 242 241 241 242 242 238 235 233 232 233 235 239 242 244 243 244 242 240 239 236 232 232 235 236 237 241 248 254 261 266 269 267 263 260 259 259 258 255 253 253 254 256 257 256 256 257 262 267 272 275 278 283 290 295 298 299 300 300 301 303 302 300 300 302 303 303 302 302 302 302 302 302
245 244 243 243 241 241 243 244 242 238 236 237 238 239 242 244 245 245 244 243 243 240 234 232 233 233 235 240 247 252 255 259 264 266 263 258 256 257 257 255 251 249 252 254 255 257 258 259 261 265 269 272 274 282 291 296 299 301 300 301 304 302 297 297 301 305 304 301 299 299 299 299 298 299
245 246 246 245 244 242 242 244 246 245 243 241 241 240 241 242 243 243 244 245 244 242 239 234 232 231 232 237 243 247 250 254 259 260 258 256 256 256 255 255 252 250 251 254 256 258 258 257 259 264 268 269 272 281 290 294 298 300 300 303 304 297 292 297 303 308 307 303 299 296 295 294 295 296
243 245 247 247 246 244 244 245 246 248 248 247 245 244 244 243 242 241 242 243 242 243 243 240 235 232 232 235 238 242 245 249 253 255 256 256 256 255 254 254 253 252 252 254 256 256 257 258 261 265 266 267 272 280 287 292 296 299 302 303 300 296 297 304 311 318 317 309 300 297 295 293 294 295
243 244 247 248 247 247 247 248 248 248 249 250 250 249 248 246 244 242 241 241 240 241 242 241 239 236 235 237 239 242 243 244 246 249 251 253 254 254 254 254 253 251 251 254 255 256 258 261 262 263 264 266 272 278 283 288 292 297 300 301 302 306 309 312 317 322 321 313 303 299 297 295 294 296
245 244 245 247 248 249 250 251 251 251 251 251 252 252 250 248 246 244 242 240 239 240 240 240 240 239 237 238 240 241 238 239 243 246 246 249 252 254 254 253 251 248 249 252 253 254 255 257 258 259 260 264 272 277 280 283 287 292 296 299 305 310 311 313 316 319 319 313 306 302 299 298 298 300
247 246 246 247 248 250 251 252 253 254 254 254 254 253 252 249 248 246 243 240 239 239 239 239 239 237 236 237 238 238 238 242 249 251 248 248 248 249 249 248 246 245 246 249 250 251 251 253 254 254 256 265 275 278 279 281 283 287 291 296 303 307 309 312 314 316 316 312 307 303 301 301 302 306
249 248 248 249 250 251 252 252 253 254 255 255 256 255 254 253 250 247 244 241 240 239 240 240 239 237 237 237 237 240 244 249 250 248 245 245 244 243 243 243 243 242 242 244 246 248 250 251 251 251 254 266 276 278 278 278 280 283 286 290 296 301 307 310 311 313 314 312 308 304 303 305 306 309
251 250 250 250 251 251 251 252 253 253 254 255 257 256 256 255 254 251 247 245 243 241 241 242 241 240 242 242 241 241 243 245 246 245 244 243 240 239 241 243 243 243 241 241 244 248 248 249 251 251 255 265 273 275 275 276 278 280 281 284 290 298 304 306 308 311 313 312 311 306 306 308 310 311
251 251 251 251 251 251 251 251 252 253 253 254 255 256 257 256 255 254 253 250 248 246 245 244 244 245 246 246 244 242 241 242 243 244 242 239 238 238 239 242 244 244 241 238 241 245 244 245 248 248 253 263 269 270 275 280 280 278 277 280 287 295 300 302 307 313 314 313 312 311 312 314 317 322
250 251 251 251 251 252 252 252 252 252 253 253 254 254 255 255 255 254 254 253 252 251 250 249 249 250 250 249 248 247 244 242 241 240 238 237 236 235 237 241 243 242 237 233 237 242 241 241 244 246 253 264 267 268 276 280 279 276 275 278 285 291 294 300 309 314 313 312 314 318 326 333 340 346
251 251 251 251 252 253 253 252 251 251 252 252 252 252 252 252 253 253 252 251 250 250 251 251 253 254 254 253 254 252 247 243 241 240 239 237 237 238 241 244 241 237 234 232 234 240 241 239 241 246 254 263 265 268 274 275 274 273 273 276 282 285 289 302 311 310 306 309 316 326 340 350 357 360
252 252 252 252 253 253 254 253 252 252 252 252 252 252 252 251 252 252 252 250 249 249 250 251 254 256 255 255 255 253 249 246 245 244 245 245 245 244 242 238 234 231 231 230 231 238 242 239 241 248 253 257 262 267 271 274 272 270 271 275 277 278 288 303 306 301 298 307 316 329 344 353 357 357
252 252 252 253 253 253 254 254 253 253 252 252 252 253 253 252 252 254 255 253 252 252 252 253 255 257 256 255 254 252 249 247 245 243 242 242 240 238 233 231 229 227 226 227 231 238 241 238 241 248 250 252 258 265 269 274 273 269 270 271 269 271 285 296 297 292 289 297 307 322 339 347 349 348
254 253 252 253 253 254 254 254 254 253 252 251 252 252 253 252 253 255 255 254 253 253 253 254 256 257 255 254 253 251 249 247 243 237 233 231 229 228 228 227 227 226 226 227 231 234 236 237 241 245 247 249 255 260 265 273 271 263 259 257 256 265 278 285 288 285 280 285 294 309 328 337 338 337
257 256 255 254 253 254 255 254 254 253 251 251 251 251 251 250 252 254 252 250 252 252 250 251 252 252 253 252 251 250 247 245 240 234 231 230 226 224 225 226 225 225 227 230 229 228 229 233 237 238 239 245 251 254 259 269 266 255 248 246 249 259 270 280 283 279 280 286 287 292 309 322 324 324
260 260 259 257 255 255 256 256 255 254 253 252 252 251 249 249 252 254 251 249 251 251 248 247 248 248 248 249 248 248 246 243 239 235 234 232 227 225 226 226 223 221 224 227 226 225 227 230 231 229 231 239 247 248 253 264 265 256 248 246 249 256 266 276 274 272 282 286 279 282 294 304 310 314
261 262 262 261 260 259 257 256 256 256 255 255 254 252 249 250 253 254 252 252 253 251 250 250 249 248 246 245 245 245 243 241 238 235 234 232 230 229 229 228 225 225 228 227 221 222 227 228 225 225 229 239 244 244 251 264 266 260 251 248 252 257 264 268 264 268 282 281 273 279 287 289 298 305
261 261 262 264 265 265 263 260 257 257 257 257 257 254 252 254 256 255 253 254 255 254 253 252 251 249 245 242 241 241 240 239 237 234 232 232 232 233 233 232 229 230 233 230 223 222 223 221 220 223 228 236 239 241 250 263 267 263 255 250 253 256 256 256 258 266 276 274 270 277 282 283 291 300
263 263 264 267 268 268 268 266 263 260 259 258 257 257 257 259 259 256 254 254 255 255 254 252 249 247 244 240 238 237 236 236 235 233 231 232 233 234 236 237 235 234 233 228 222 222 223 222 222 224 228 232 234 237 246 257 262 259 251 246 249 247 244 246 253 262 267 267 269 275 275 277 286 297
265 266 267 268 269 269 270 270 270 268 265 263 261 261 262 262 259 255 253 252 252 252 252 249 247 245 243 240 238 236 234 233 232 231 232 233 234 234 235 237 238 240 237 228 221 222 224 226 226 227 229 231 230 234 244 254 259 256 245 239 237 236 238 245 253 256 257 259 263 265 265 272 285 294
269 270 271 272 273 273 273 273 273 273 272 270 269 269 268 263 259 257 257 256 254 252 249 248 246 245 243 241 238 237 236 233 232 232 232 233 233 233 233 233 233 235 233 228 224 224 225 226 227 229 231 229 228 234 245 253 256 251 240 232 230 232 239 248 253 256 257 256 255 252 257 270 282 286
269 269 271 274 276 276 276 276 275 275 274 274 274 275 273 267 262 260 260 259 256 253 250 248 247 246 244 242 240 240 238 235 233 231 230 229 229 229 230 230 229 227 225 224 224 224 225 227 228 229 230 228 229 236 246 251 251 246 236 231 231 236 243 249 253 255 249 241 242 249 261 272 278 279
268 268 269 270 270 271 272 272 273 273 275 276 275 276 275 271 266 264 261 258 257 256 254 251 249 248 246 244 241 239 236 234 232 229 226 225 225 224 224 223 221 220 219 221 222 222 224 226 225 227 230 228 230 239 248 250 246 241 235 232 233 238 243 247 249 247 235 228 235 252 263 270 274 276
268 268 268 268 268 268 268 268 269 270 272 274 273 274 273 271 269 267 264 261 260 259 258 256 253 250 246 243 240 237 235 233 231 228 225 222 221 221 220 218 215 215 216 218 219 221 224 225 223 224 227 228 234 244 249 245 239 235 233 232 234 239 242 242 244 242 235 229 235 252 263 268 270 274
267 267 267 266 267 268 268 269 270 270 271 272 272 273 273 272 271 270 267 265 263 262 261 259 254 249 244 242 239 236 234 232 229 226 224 221 219 218 217 215 213 213 214 214 214 217 221 224 223 222 221 227 240 245 238 229 227 230 232 234 237 241 242 241 242 238 227 223 237 256 265 266 268 275
273 272 272 271 270 269 269 270 271 272 273 274 274 274 274 274 273 272 269 267 266 265 265 261 254 247 244 242 239 235 234 233 230 227 224 220 217 215 214 213 213 214 213 210 209 213 216 218 220 219 216 223 235 232 221 217 220 227 232 232 233 236 238 240 241 231 218 222 246 260 261 263 270 278
280 279 279 279 279 278 277 277 277 277 277 278 278 278 278 277 277 275 273 272 271 269 267 263 256 248 243 239 237 235 234 232 230 228 224 220 216 213 211 211 211 213 213 210 209 211 211 210 213 215 212 213 219 217 216 221 223 225 230 230 228 230 231 234 239 233 222 231 254 259 261 269 278 283
284 284 284 284 284 283 282 281 281 281 281 281 280 280 280 279 278 277 276 275 273 270 267 262 257 251 244 239 237 236 234 230 227 223 220 217 215 213 211 210 209 209 209 209 210 210 208 206 208 207 204 207 215 219 221 224 222 224 229 227 223 222 220 226 238 236 227 235 252 260 268 278 283 283
286 288 289 289 289 289 287 286 285 284 283 282 281 279 278 278 277 277 277 277 275 272 268 264 259 255 249 243 238 235 231 227 223 218 215 213 212 210 209 208 207 205 205 209 211 209 205 204 204 200 200 207 216 222 221 217 213 216 216 210 210 214 216 223 236 237 229 235 251 263 273 280 284 287
293 295 296 297 297 295 294 292 290 288 286 285 283 280 277 276 275 276 277 279 278 276 273 268 263 258 254 247 241 234 228 223 219 216 213 210 208 207 206 205 205 205 207 209 209 205 203 202 201 200 203 208 215 221 221 214 208 208 204 201 205 212 217 224 234 238 237 245 256 265 272 277 285 296
301 303 304 305 304 302 300 297 294 292 290 289 288 287 284 281 278 277 278 279 280 281 278 273 267 262 257 250 242 234 226 220 215 212 209 206 205 204 204 202 201 202 204 204 202 199 200 200 201 204 206 209 215 220 219 211 209 209 207 207 208 208 213 222 231 239 245 252 260 266 270 275 288 301
309 312 314 314 314 313 311 306 301 299 297 296 295 295 296 293 289 285 281 279 279 281 281 277 272 266 259 250 241 230 222 216 212 210 208 206 204 203 201 198 194 194 195 196 195 194 195 199 203 205 208 212 218 223 217 212 216 216 213 214 214 210 212 221 232 245 252 254 258 263 267 275 287 299
335 336 333 332 331 330 326 322 317 311 308 308 308 306 305 303 300 296 292 287 284 282 280 278 276 273 267 257 245 232 222 216 212 209 206 203 200 198 194 189 186 185 187 189 192 193 195 201 205 207 210 217 226 230 227 225 227 225 223 223 223 221 223 232 247 255 252 248 250 256 264 275 284 291
351 350 347 344 345 346 344 341 336 329 323 321 320 316 311 307 303 301 299 297 293 288 285 282 280 279 277 268 251 234 222 214 209 204 198 193 188 183 178 174 173 176 179 184 192 199 202 206 209 209 214 221 221 216 219 224 226 228 228 229 232 239 246 249 248 246 242 239 243 252 262 276 285 288
352 353 352 352 353 354 354 354 353 349 344 339 336 333 326 317 310 306 303 302 302 298 293 290 285 282 280 271 254 238 224 209 200 194 186 178 170 163 159 159 163 170 176 184 196 204 207 210 210 209 212 214 211 212 221 229 232 233 232 232 239 248 250 240 230 234 242 244 243 250 260 272 280 283
350 350 352 355 356 355 354 356 359 359 358 358 358 354 346 337 330 326 321 317 315 308 299 292 286 280 273 257 238 227 214 193 170 161 158 155 151 148 151 157 164 172 179 188 198 204 207 209 210 208 207 208 211 221 229 232 234 236 232 235 246 251 242 230 227 233 242 244 247 253 258 261 268 276
349 348 349 352 353 354 356 0 3 6 10 14 16 11 3 353 343 334 328 323 317 308 298 291 283 268 225 164 167 177 171 154 136 128 130 135 139 146 154 160 165 171 180 188 198 203 204 207 209 210 210 211 217 225 229 229 233 238 241 251 260 250 226 217 222 232 242 249 253 253 251 253 259 268
349 348 349 350 351 354 359 5 9 12 16 23 26 25 21 14 2 350 346 351 6 25 48 86 101 108 113 113 113 117 124 128 130 134 138 141 144 148 153 159 165 171 179 188 198 203 204 204 204 206 209 213 218 224 229 234 239 243 250 258 254 230 209 214 230 241 249 254 249 243 244 250 255 263